Regional Weather Roundup
Issued by NWS Mt. Holly, NJ

Home | Current Version | Previous Version | Text Only | Print | Product List | Glossary On
Versions: 1 2 3 4 5 6 7 8 9 10 11 12 13 14 15 16 17 18 19 20 21 22 23 24 25 26 27 28 29 30 31 32 33 34 35 36 37 38 39 40 41 42 43 44 45 46 47 48 49 50
000
ASUS41 KPHI 231512
RWRPHI

REGIONAL WEATHER ROUNDUP
NATIONAL WEATHER SERVICE MOUNT HOLLY NJ
1100 AM EDT SAT JUL 23 2016

NOTE:  "FAIR" INDICATES FEW OR NO CLOUDS BELOW 12,000 FEET WITH NO
SIGNIFICANT WEATHER AND/OR OBSTRUCTIONS TO VISIBILITY.

 * = STATION DOES NOT REPORT PRECIPITATION (E.G. RAIN, SNOW, ETC.)
        OR FOG.

NJZ015>026-231600-
SOUTHERN NEW JERSEY

CITY           SKY/WX    TMP DP  RH WIND       PRES   REMARKS
POMONA         SUNNY     90  71  53 W12       29.90S HX  96
WILDWOOD*      SUNNY     87  76  69 W9G16     29.93R HX  97
MILLVILLE      SUNNY     91  71  51 W12       29.92R HX  97
WRIGHTSTOWN    MOSUNNY   90  71  52 W12       29.86F HX  96
MOUNT HOLLY    SUNNY     89  69  51 VRB7      29.89S HX  93
TRENTON        SUNNY     88  71  57 SW5       29.89S HX  94

$$
NJZ001>014-231600-
NORTHERN NEW JERSEY

CITY           SKY/WX    TMP DP  RH WIND       PRES   REMARKS
SUSSEX         SUNNY     87  64  46 W8        29.88S
ANDOVER*         N/A     85  63  47 VRB5      29.90S
MORRISTOWN     SUNNY     90  55  31 NW14G20   29.87F
NEWARK         MOSUNNY   91  62  37 W15G22    29.85F HX  91
TETERBORO      SUNNY     89  60  37 W10       29.84S
CALDWELL       SUNNY     89  62  40 NW10      29.87R
SOMERVILLE     SUNNY     90  63  40 W8        29.86S HX  91
TOMS RIVER*    SUNNY     90  71  53 NW10      29.89S HX  96

$$
PAZ043-044-047-054-055-060>062-066>071-231600-
EASTERN PENNSYLVANIA

CITY           SKY/WX    TMP DP  RH WIND       PRES   REMARKS
PHILADELPHIA   MOSUNNY   89  70  53 W8        29.91R HX  94
NORTH PHILA    MOSUNNY   92  70  48 W6        29.91S HX  97
BLUE BELL*     MOSUNNY   86  70  58 W8        29.90S HX  90
DOYLESTOWN     SUNNY     88  62  41 NW9       29.90S
QUAKERTOWN*    SUNNY     90  66  45 CALM      29.93S HX  92
PERKASIE*      FAIR      88  63  42 W8        29.93S
POTTSTOWN      SUNNY     90  66  45 NW7       29.92F HX  92
LANCASTER      MOSUNNY   86  71  60 W9        29.93S HX  91
COATESVILLE    MOSUNNY   86  72  62 VRB7G14   29.96S HX  92
READING        SUNNY     92  61  35 NW6       29.91S HX  92
ALLENTOWN      SUNNY     89  64  43 W7        29.91S HX  90
MOUNT POCONO   SUNNY     81 N/A N/A NW12G21   29.98R
HAZLETON       SUNNY     82  59  44 W5        30.01R
LEHIGHTON      FAIR      86  59  39 W7        29.93R
WILKES BARRE   SUNNY     88  57  34 N18G24    29.92R

$$
DEZALL-MDZ008-012-015-019-020-231600-
DELAWARE AND EASTERN MARYLAND

CITY           SKY/WX    TMP DP  RH WIND       PRES   REMARKS
WILMINGTON     SUNNY     89  73  59 NW9       29.93R HX  97
DOVER          SUNNY     90  76  63 W8        29.91R HX 102
GEORGETOWN     SUNNY     92  72  51 N8        29.93S HX  99
EASTON         SUNNY     90  81  74 NW8       29.98R HX 108
PATUXENT       SUNNY     93  71  48 VRB5      29.95R HX 100
OCEAN CITY     SUNNY     90  75  61 CALM      29.93S HX 100
WALLOPS ISLAND FAIR      90  76  63 W5        29.95R HX 101
CAMBRIDGE      SUNNY     88  72  58 NW6       29.94R HX  94
SALISBURY      SUNNY     90  73  57 N6        29.94R HX  98

$$
PAZ001-021-NYZ056-072-MDZ011-DCZ001-231600-
OTHER NEARBY LOCATIONS

CITY           SKY/WX    TMP DP  RH WIND       PRES   REMARKS
HARRISBURG     MOSUNNY   89  72  56 W7        29.92S HX  96
STATE COLLEGE  PTSUNNY   81  70  69 W9        30.00R
WILLIAMSPORT   SUNNY     90  55  30 W9        29.91S
BINGHAMTON     MOSUNNY   84  54  35 W15G22    29.94S
NEW YORK CITY  SUNNY     88  61  40 MISG      29.88S
BALTIMORE      MOSUNNY   92  71  50 W7        29.94R HX  98
WASHINGTON DC  FAIR      92  72  51 N10       29.96R HX  99

$$



USA.gov is the U.S. government's official web portal to all federal, state and local government web resources and services.